www.pogodaiklimat.ru

Погода и климат >> Архив погоды >> Испания >> Луго


ПОГОДА в Луго

  • Прогноз погоды в Луго
  • Монитор погоды в Луго

АРХИВ ПОГОДЫ в Луго

Время (UTC), дата Ветер
(напр.,м/с)
 
Видим.   Явления Облачность Т
(С)
Тd
(С)
f
(%)
Тe
(С)
Тes
(С)
Комфортность P
(гПа)
Po
(гПа)
Тmin
(С)
Tmax
(С)
R
(мм)
R24
(мм)
S
(см)
22 8.06 СВ 1 17 км н/о +10.5 +8.8 89 +10 +10 1022.4 969.4
23 8.06 СВ 1 13 км н/о +10.3 +8.9 91 +10 +10 1021.8 968.8
00 9.06 СВ 1 11 км н/о +10.4 +9.2 92 +11 +11 1021.3 968.4
01 9.06 С 1 10 км н/о +10.3 +9.2 93 +11 +11 1020.7 967.8
02 9.06 З 1 7000 м н/о +9.8 +8.6 92 +10 +10 1020.7 967.7
03 9.06 З 1 н/о н/о +9.5 +8.6 94 +10 +10 1020.7 967.6
04 9.06 СЗ 1 4500 м н/о +9.4 +8.5 94 +10 +10 1020.4 967.3
05 9.06 штиль 0 4100 м н/о +9.0 +8.2 95 +8 +8 1020.6 967.4
06 9.06 ЮЗ 1 8000 м н/о +9.8 +9.0 95 +10 +10 1020.4 967.4 +9.0
07 9.06 З 1 17 км н/о +10.3 +8.7 90 +10 +10 1020.7 967.8
08 9.06 В 1 17 км н/о +11.3 +9.2 87 +12 +12 1020.6 967.9
09 9.06 С 1 18 км н/о +12.4 +9.6 83 +12 +12 1020.7 968.2
10 9.06 СВ 2 7000 м слаб. морось н/о +11.2 +9.9 92 +10 +10 1021.2 968.4 0.0
11 9.06 СВ 1 20 км в посл. час морось н/о +11.2 +9.6 90 +11 +11 1021.6 968.8 0.0
12 9.06 СВ 1 20 км дымка н/о +12.4 +9.8 84 +12 +12 1021.3 968.7 0.0
13 9.06 С 2 20 км н/о +12.9 +9.2 78 +12 +12 1021.2 968.7
14 9.06 С 1 20 км н/о +13.3 +9.7 79 +13 +13 1021.1 968.7
15 9.06 СВ 2 20 км н/о +14.4 +9.6 73 +14 +14 1020.8 968.6
16 9.06 СВ 3 20 км н/о +15.3 +9.6 69 +15 +15 1020.8 968.8
17 9.06 В 3 20 км н/о +13.8 +9.4 75 +13 +13 1021.3 969.0
18 9.06 СВ 3 20 км дымка н/о +13.2 +9.1 76 +12 +12 1021.5 969.1 +15.6
19 9.06 СВ 2 20 км н/о +13.0 +9.1 77 +12 +12 1021.8 969.3
20 9.06 С 1 20 км н/о +11.5 +8.2 80 +12 +12 1022.2 969.4
21 9.06 СЗ 1 20 км н/о +9.8 +7.9 88 +10 +10 1023.2 970.0
22 9.06 штиль 0 16 км н/о +8.3 +6.4 88 +7 +7 1023.8 970.3
23 9.06 ЮВ 1 10 км н/о +7.1 +6.0 93 +7 +7 1024.1 970.4
00 10.06 З 1 11 км н/о +7.3 +7.0 98 +7 +7 1023.6 969.9
01 10.06 СВ 1 10 км н/о +8.2 +7.8 97 +8 +8 1022.9 969.5
02 10.06 СЗ 1 13 км н/о +8.5 +7.9 96 +9 +9 1022.6 969.2
03 10.06 З 1 9000 м н/о +8.8 +8.0 95 +9 +9 1022.6 969.3
04 10.06 З 1 9000 м н/о +9.1 +8.2 94 +9 +9 1022.3 969.1
05 10.06 СЗ 1 7000 м н/о +8.6 +7.7 94 +9 +9 1022.7 969.3
06 10.06 С 1 15 км 10/10 300 м
[Sc]
+8.5 +7.4 93 +9 +9 1022.8 969.4 +6.7
07 10.06 З 1 20 км н/о +9.3 +7.7 90 +10 +10 1022.7 969.5
08 10.06 В 1 20 км н/о +11.1 +8.0 81 +11 +11 1022.7 969.8
09 10.06 СЗ 1 20 км 9/5 300 м
[Sc Ac trans]
+12.8 +7.7 71 +13 +16 1022.1 969.5
10 10.06 СЗ 2 19 км н/о +14.3 +5.1 54 +14 +14 1021.6 969.3
11 10.06 СЗ 2 20 км н/о +15.5 +6.8 56 +16 +16 1021.1 969.0
12 10.06 З 2 20 км н/о +16.1 +6.2 52 +16 +16 1020.6 968.7
13 10.06 З 2 700 м н/о +17.2 +6.4 49 +18 +18 1020.0 968.3
14 10.06 СЗ 2 4100 м н/о +17.9 +5.1 43 +18 +18 1018.9 967.4
15 10.06 СЗ 2 20 км н/о +17.7 +6.2 47 +18 +18 1018.7 967.1
16 10.06 С 3 20 км н/о +17.3 +6.8 50 +17 +17 1018.5 966.9
17 10.06 СВ 2 20 км н/о +15.8 +9.9 68 +16 +16 1018.4 966.6
18 10.06 В 4 20 км н/о +13.3 +8.6 73 +12 +12 1019.3 967.0 +18.2
19 10.06 СВ 2 20 км н/о +11.7 +7.8 77 +11 +11 1020.0 967.3
20 10.06 В 2 20 км слаб. дождь н/о +10.8 +7.5 80 +9 +9 1019.9 967.1 0.0
21 10.06 С 1 20 км в посл. час морось {дождь} н/о +10.3 +7.7 84 +11 +11 1020.4 967.5 0.0
22 10.06 З 1 20 км н/о +10.4 +8.2 86 +11 +11 1020.4 967.5
23 10.06 штиль 0 20 км н/о +10.5 +8.3 86 +10 +10 1020.2 967.3
00 11.06 З 1 19 км слаб. морось {дождь} н/о +10.4 +8.5 88 +11 +11 1019.9 967.0 0.0
01 11.06 С 2 20 км слаб. морось н/о +10.0 +7.6 85 +9 +9 1019.8 966.8 0.0
02 11.06 З 1 20 км н/о +9.6 +7.5 87 +10 +10 1019.5 966.5
03 11.06 С 1 19 км слаб. морось н/о +9.5 +7.9 90 +10 +10 1019.2 966.2 0.0
04 11.06 В 1 19 км в посл. час морось н/о +8.8 +7.7 93 +8 +8 1019.5 966.3 0.4
05 11.06 С 1 20 км в посл. час морось н/о +8.5 +7.6 94 +9 +9 1019.7 966.5 0.0
06 11.06 С 2 19 км дымка н/о +8.8 +7.4 91 +7 +7 1020.3 967.1 +8.5 0.4
07 11.06 С 1 20 км н/о +9.8 +7.7 87 +10 +10 1020.4 967.4
08 11.06 СВ 2 19 км н/о +12.0 +7.9 76 +11 +11 1020.5 967.9
09 11.06 СВ 3 20 км н/о +13.3 +5.7 60 +12 +12 1020.0 967.6
10 11.06 С 2 20 км н/о +13.4 +5.8 60 +13 +13 1020.3 967.9
11 11.06 С 2 20 км слаб. дождь н/о +13.4 +6.0 61 +13 +13 1020.7 968.3 0.0
12 11.06 В 4 20 км дымка н/о +14.7 +7.5 62 +14 +14 1020.6 968.4 0.0
13 11.06 СВ 4 20 км н/о +14.2 +6.8 61 +13 +13 1020.2 968.0
14 11.06 СВ 3 20 км н/о +14.9 +7.4 61 +14 +14 1019.8 967.7
15 11.06 СВ 2 20 км н/о +14.8 +7.1 60 +15 +15 1020.0 967.9
16 11.06 СВ 3 20 км н/о +14.1 +7.2 63 +13 +13 1020.0 967.8
17 11.06 СВ 2 20 км н/о +14.7 +6.8 59 +15 +15 1019.8 967.7
18 11.06 С 3 20 км дымка н/о +15.5 +6.0 53 +15 +15 1019.6 967.6 +15.8
19 11.06 С 2 17 км н/о +13.7 +6.3 61 +14 +14 1020.0 967.7
20 11.06 СЗ 2 13 км н/о +11.6 +5.7 67 +11 +11 1020.2 967.5
21 11.06 ЮВ 1 13 км н/о +9.9 +6.2 78 +10 +10 1020.8 967.8
22 11.06 ЮЗ 1 13 км н/о +10.0 +6.7 80 +11 +11 1020.6 967.6
23 11.06 Ю 1 11 км н/о +8.0 +5.5 84 +8 +8 1020.8 967.4
00 12.06 ЮВ 1 4400 м н/о +6.1 +4.4 89 +5 +5 1020.9 967.1
01 12.06 ЮВ 1 3800 м н/о +5.3 +4.3 93 +4 +4 1020.4 966.5
02 12.06 Ю 1 4000 м н/о +5.1 +4.2 94 +5 +5 1019.9 966.0
03 12.06 ЮЗ 1 н/о слаб. морось н/о +6.8 +6.8 100 +6 +6 1019.0 965.5 0.0
04 12.06 ЮЗ 2 8000 м в посл. час морось н/о +7.5 +6.9 96 +6 +6 1018.3 965.0 0.0
05 12.06 ЮЗ 2 9000 м н/о +7.0 +6.3 95 +5 +5 1018.4 965.0
06 12.06 ЮЗ 2 13 км дымка н/о +8.3 +7.2 93 +7 +7 1018.2 965.0 +5.0 0.0
07 12.06 ЮЗ 2 18 км н/о +9.6 +7.5 87 +8 +8 1018.0 965.1
08 12.06 ЮЗ 1 16 км в посл. час морось н/о +9.8 +7.9 88 +9 +9 1017.9 965.0 0.0
09 12.06 З 2 20 км {морось} 8/8 300 м
[Cu Sc]
+11.5 +7.0 74 +11 +13 1017.4 964.8 0.0
10 12.06 З 1 20 км н/о +13.7 +5.6 58 +14 +14 1016.8 964.6
11 12.06 С 1 6000 м н/о +15.5 +3.3 44 +16 +16 1016.1 964.3
12 12.06 Ю 2 25 км {морось} 5/5 300 м
[Sc]
+16.4 +3.4 42 +17 +26 1015.4 963.8
13 12.06 СЗ 2 20 км н/о +15.8 +4.5 47 +16 +16 1014.9 963.2
14 12.06 СЗ 2 20 км н/о +16.6 +4.3 44 +17 +17 1014.3 962.8
15 12.06 СЗ 2 20 км н/о +17.2 +5.5 46 +18 +18 1014.1 962.7
16 12.06 С 3 19 км н/о +17.2 +7.0 51 +17 +17 1013.8 962.4
17 12.06 СВ 2 20 км н/о +15.0 +8.5 65 +15 +15 1014.2 962.4
18 12.06 СВ 4 20 км дымка н/о +14.2 +7.7 65 +13 +13 1014.0 962.1 +17.5
19 12.06 СВ 2 20 км н/о +12.6 +7.5 71 +12 +12 1014.5 962.3
20 12.06 СВ 1 20 км н/о +11.2 +7.7 79 +11 +11 1014.9 962.4
21 12.06 С 1 20 км н/о +10.4 +7.3 81 +11 +11 1015.2 962.6
22 12.06 С 1 20 км н/о +9.8 +7.4 85 +10 +10 1015.1 962.4
23 12.06 СВ 1 20 км н/о +9.5 +7.3 86 +10 +10 1014.7 961.9
00 13.06 ЮВ 1 17 км н/о +8.7 +6.3 85 +9 +9 1014.3 961.4
01 13.06 штиль 0 13 км н/о +6.9 +5.0 88 +6 +6 1014.3 961.0
02 13.06 Ю 1 17 км н/о +6.7 +5.8 94 +7 +7 1014.1 960.8
03 13.06 ЮВ 1 12 км н/о +6.4 +5.7 95 +6 +6 1014.0 960.7
04 13.06 З 1 12 км н/о +6.8 +5.9 94 +7 +7 1013.8 960.6
05 13.06 Ю 1 12 км н/о +7.2 +6.8 97 +6 +6 1013.8 960.6
06 13.06 ЮЗ 1 10 км н/о +8.0 +7.4 96 +8 +8 1013.6 960.6 +6.3
07 13.06 З 1 15 км н/о +9.6 +7.9 89 +10 +10 1013.3 960.6
08 13.06 З 1 17 км н/о +11.1 +7.6 79 +11 +11 1013.1 960.7
09 13.06 С 1 20 км 10/10 300 м
[Cu Sc]
+11.6 +7.7 77 +12 +12 1013.2 960.9
10 13.06 СЗ 2 19 км н/о +13.4 +7.8 69 +13 +13 1012.9 960.9
11 13.06 ЮВ 2 20 км н/о +15.1 +6.1 55 +15 +15 1012.4 960.7
12 13.06 З 2 25 км 9/9 300 м
[Cu Sc]
+15.9 +7.1 56 +16 +18 1012.1 960.6
13 13.06 СЗ 2 20 км н/о +16.6 +6.4 51 +17 +17 1011.9 960.5
14 13.06 З 3 300 м н/о +17.1 +4.4 43 +17 +17 1011.7 960.4
15 13.06 СВ 2 12 км н/о +17.3 +7.6 53 +18 +18 1011.6 960.4
16 13.06 С 2 8000 м н/о +17.0 +7.1 52 +17 +17 1011.8 960.5
17 13.06 С 3 3800 м н/о +17.5 +7.0 50 +18 +18 1011.8 960.6
18 13.06 СВ 2 14 км н/о +15.1 +8.3 64 +15 +15 1012.8 961.1 +18.6
19 13.06 СВ 2 18 км н/о +13.7 +8.3 70 +13 +13 1013.5 961.5
20 13.06 СВ 1 11 км н/о +11.9 +8.6 80 +13 +13 1014.2 961.9
21 13.06 СВ 1 11 км н/о +10.5 +7.6 82 +10 +10 1014.9 962.3
22 13.06 ЮЗ 1 7000 м н/о +8.8 +6.4 85 +9 +9 1015.5 962.5
23 13.06 Ю 1 7000 м н/о +7.3 +5.6 89 +7 +7 1015.7 962.4
00 14.06 ЮВ 1 3600 м н/о +6.4 +4.6 88 +5 +5 1015.5 962.1
01 14.06 Ю 1 3800 м н/о +5.2 +3.7 90 +5 +5 1015.5 961.8
02 14.06 Ю 1 2700 м н/о +5.2 +4.5 95 +5 +5 1015.2 961.6
03 14.06 ЮВ 1 200 м н/о +5.8 +5.5 98 +6 +6 1014.9 961.4
04 14.06 Ю 1 100 м н/о +6.1 +5.8 98 +6 +6 1014.8 961.4
05 14.06 ЮВ 1 100 м н/о +5.7 +5.3 97 +5 +5 1015.3 961.8
06 14.06 З 1 300 м туман ?/? +5.2 +4.5 95 +4 +4 1015.8 962.1 +5.0
07 14.06 В 1 100 м н/о +6.3 +5.9 97 +6 +6 1015.7 962.3
08 14.06 З 1 900 м н/о +7.8 +7.4 97 +8 +8 1015.9 962.7
09 14.06 СВ 2 20 км в посл. час туман 5/5 300 м
[Sc]
+10.8 +8.6 86 +10 +15 1015.4 962.8
10 14.06 З 1 16 км н/о +14.3 +8.5 68 +15 +15 1014.6 962.7
11 14.06 С 2 17 км н/о +16.4 +7.3 55 +17 +17 1014.1 962.6
12 14.06 ЮЗ 2 25 км {туман} 6/6 300 м
[Cu med, cong]
+18.3 +5.8 44 +19 +28 1013.9 962.7
13 14.06 З 3 7000 м н/о +19.1 +7.8 48 +20 +20 1013.5 962.5
14 14.06 З 2 14 км н/о +18.5 +7.0 47 +20 +20 1013.8 962.6
15 14.06 З 2 17 км н/о +18.1 +6.6 47 +19 +19 1013.8 962.6
16 14.06 З 2 18 км н/о +17.6 +5.8 46 +18 +18 1014.3 962.9
17 14.06 З 3 20 км н/о +17.3 +8.4 56 +17 +17 1014.8 963.4
18 14.06 СЗ 3 20 км н/о +16.4 +8.6 60 +16 +16 1015.9 964.3 +19.6
19 14.06 СЗ 2 20 км н/о +14.3 +8.7 69 +14 +14 1017.0 965.0
20 14.06 С 2 20 км н/о +13.2 +8.9 75 +13 +13 1017.8 965.5
21 14.06 штиль 0 19 км н/о +12.0 +8.8 81 +11 +11 1018.7 966.2
22 14.06 Ю 1 19 км н/о +11.0 +8.7 86 +12 +12 1019.4 966.7
23 14.06 ЮЗ 1 16 км н/о +11.4 +9.0 85 +12 +12 1019.7 967.0
00 15.06 ЮЗ 1 3800 м н/о +11.2 +8.9 86 +11 +11 1019.7 967.0
01 15.06 ЮЗ 2 н/о н/о +11.5 +8.9 84 +11 +11 1019.6 966.9
02 15.06 ЮЗ 2 н/о в посл. час морось н/о +11.1 +9.2 88 +10 +10 1019.6 966.9 0.0
03 15.06 ЮЗ 2 19 км н/о +10.9 +9.3 90 +10 +10 1019.7 966.9 0.0
04 15.06 ЮЗ 1 19 км н/о +10.8 +9.1 89 +10 +10 1019.8 967.0
05 15.06 ЮЗ 2 19 км н/о +10.6 +9.0 90 +10 +10 1020.2 967.4
06 15.06 ЮЗ 2 18 км дымка н/о +10.5 +8.9 90 +9 +9 1021.0 968.1 +10.1
07 15.06 ЮЗ 2 19 км н/о +12.6 +9.1 79 +12 +12 1020.9 968.4
08 15.06 ЮЗ 3 20 км н/о +13.7 +8.1 69 +13 +13 1020.9 968.6
09 15.06 ЮЗ 4 20 км н/о +15.3 +7.3 59 +14 +14 1021.1 969.0
10 15.06 З 3 20 км н/о +15.4 +6.4 55 +15 +15 1021.3 969.2
11 15.06 З 3 20 км н/о +15.6 +6.6 55 +15 +15 1021.5 969.4
12 15.06 З 4 20 км н/о +17.3 +6.5 49 +17 +17 1021.1 969.4
13 15.06 З 4 19 км н/о +17.9 +7.0 49 +18 +18 1021.1 969.5
14 15.06 З 3 20 км н/о +17.5 +7.8 53 +18 +18 1021.1 969.4
15 15.06 З 2 19 км н/о +16.9 +8.1 56 +17 +17 1021.6 969.8
16 15.06 З 3 20 км н/о +17.6 +8.2 54 +18 +18 1021.2 969.5
17 15.06 З 3 20 км н/о +17.4 +9.0 58 +18 +18 1021.1 969.4
18 15.06 З 3 20 км н/о +17.6 +7.9 53 +18 +18 1021.2 969.5 +18.4
19 15.06 СЗ 1 19 км н/о +16.8 +8.2 57 +18 +18 1021.2 969.4
20 15.06 СЗ 1 14 км н/о +14.7 +9.3 70 +15 +15 1021.7 969.5
21 15.06 Ю 1 10 км н/о +12.1 +8.6 79 +13 +13 1022.6 969.9
22 15.06 Ю 1 8000 м н/о +10.1 +7.9 86 +11 +11 1023.3 970.2

 

Местоположение метеостанции Луго (Испания): широта 43.12 долгота -7.45 высота над уровнем моря 446 м.

В архиве по умолчанию представлена погода в Луго за последнюю неделю. Архивные данные за месяц целиком и за предыдущие месяцы, начиная с января 2011 года, Вы можете получить, выбрав интересующий диапазон дат из раскрывающегося списка и нажав кнопку "Ввод!".


*Определитесь, кто Вы:
робот инопланетянин человек

Внимание! Время в таблицах - всемирное. Для получения местного времени необходимо прибавить поправку, которая равна 1 ч.

Смотрите также архив погоды в соседних городах и на ближайших метеорологических станциях:

Погода в Кастрополе (Испания) (57 км)
Погода в Эстака-де-Баресе (Испания) (77 км)
Погода в Ла-Корунье (Испания) (83 км)
Погода в Сантьяго (Испания) (83 км)
Погода в Пуэрто-де-Лейтарьегосе (Испания) (86 км)
Погода в Побра-де-Тривес-Сане (Испания) (88 км)
Погода на Кабо Бусто (Испания) (94 км)
Погода в Карбальино (Испания) (94 км)
Погода в Сантьяго-де-Компостеле (Испания) (94 км)
Погода в Оренсе (Испания) (94 км)

Пояснения к столбцам:

Ветер - указаны скорость ветра в м/с - средняя за 10 мин, порывы в срок и между сроками (в фигурных скобках) и направление, откуда дует ветер: С - северный, СВ - северо-восточный, В - восточный, ЮВ - юго-восточный, Ю - южный, ЮЗ - юго-западный, З - западный, СЗ - северо-западный.
Видимость - горизонтальная дальность видимости в метрах или километрах. При видимости от 1 до 10 км при отсутствии осадков обычно наблюдается дымка, при ухудшении видимости до 1 км и менее - туман. В сухую погоду видимость может ухудшаться дымом, пылью или мглою.
Явления - указаны атмосферные явления, наблюдавшиеся в срок или в последний час перед сроком; фигурными скобками обозначены явления, наблюдавшиеся между сроками (за 1-3 часа до срока); квадратными скобками обозначены град или гололедные отложения с указанием их диаметра в мм.
Облачность - указаны через наклонную черту общая и нижняя облачность в баллах и высота нижней границы облаков в метрах; квадратными скобками обозначены формы облаков: Ci - перистые, Cs - перисто-слоистые, Cc - перисто-кучевые, Ac - высококучевые, As - высокослоистые, Sc - слоисто-кучевые, Ns - слоисто-дождевые, Cu - кучевые, Cb - кучево-дождевые. Подробнее классификацию облаков см. в Атласе облаков (PDF).
T - Температура воздуха - температура, измеренная на высоте 2 м над землей.
Td - Температура точки росы - температура, при понижении до которой содержащийся в воздухе водяной пар достигнет насыщения.
f - Относительная влажность воздуха - влажноcть воздуха, измеренная на высоте 2 м над землей.
Te - Эффективная температура - температура, которую ощущает одетый по сезону человек в тени. Характеристика душности погоды. При расчете учитывается влияние влажности воздуха и скорости ветра на теплоощущения человека.
Tes - Эффективная температура на солнце - температура, которую ощущает человек, с поправкой на солнечный нагрев. Характеристика знойности погоды. Зависит от высоты солнца над горизонтом, облачности и скорости ветра. Ночью, в пасмурную погоду, а также при ветре 12 м/с и более поправка равна нулю.
P - Атмосферное давление - приведенное к уровню моря атмосферное давление.
Po - Атмосферное давление - измеренное на уровне метеостанции атмосферное давление.
Tmin - Минимальная температура - минимум температуры воздуха на высоте 2 м над землей.
Tmax - Максимальная температура - максимум температуры воздуха на высоте 2 м над землей.
R - Количество осадков - Количество выпавших осадков за период времени, мм. При наведении курсора мыши на число - период времени, за который выпало указанное количество осадков.
R24 - Количество осадков - Количество выпавших осадков за 24 часа, мм.
S - Снежный покров - Высота снежного покрова, см. При наведении курсора мыши на число - состояние снежного покрова и степень покрытия местности в баллах.